Location: Sternwarte_Laufen
(47.9344°N, 12.9346°E)
Time: 01:23:19
(UTC+02:00)

ISS - Pass Details

Date: 17 July 2018
Orbit: 402 x 408 km, 51.6° (Epoch: 18 July)

Event Time Altitude Azimuth Distance (km) Brightness Sun altitude
Exits shadow 03:13:48 - 285° (WNW) 2,348 -0.1 -15.8°
Rises 03:13:50 0° 285° (WNW) 2,330 -0.1 -15.8°
Reaches altitude 10° 03:15:59 10° 292° (WNW) 1,470 -1.1 -15.7°
Maximum altitude 03:19:09 43° 6° (N) 583 -2.6 -15.4°
Drops below altitude 10° 03:22:20 10° 80° (E) 1,471 -0.4 -15.1°
Sets 03:24:29 0° 87° (E) 2,331 0.5 -14.9°
